Theta_e
318 318 319 319 319 318 317 317 313 312 312 312 313 316 317 316 316 315 312 309 308 309 310 310 310 310 310 309 310 310 309 306 304 304 305 306 305 305 303 303 304 304 305 304 304 304 305 306 305 305 305 305 305 305 305 306 306 306 307 308 308 308 308 308 308 307 304 300 299 298 297 297 298 297 297 296 296 297 297 296 296 296 296 298 298
318 318 318 318 319 319 318 316 315 313 313 312 314 316 316 316 317 316 314 310 308 308 308 309 310 311 311 310 310 311 311 310 307 306 307 308 309 309 307 306 305 305 305 305 304 304 305 305 305 304 304 303 304 306 306 306 306 306 307 308 307 306 306 306 306 306 304 301 300 299 298 298 299 298 297 297 297 297 298 297 297 296 296 298 299
318 318 319 318 318 318 316 316 315 315 314 313 315 316 316 316 317 317 315 312 310 309 309 308 310 311 311 310 310 311 311 311 310 308 308 308 309 310 309 308 308 308 308 307 306 305 306 306 306 305 305 305 305 306 305 306 307 307 306 306 306 304 304 304 305 306 305 302 300 300 299 299 299 299 298 298 298 298 299 298 298 298 297 297 298
319 318 318 318 317 316 316 315 315 315 314 314 315 316 317 317 317 317 316 313 311 311 310 309 309 311 311 310 310 311 311 311 311 310 309 308 308 309 309 310 309 309 309 309 308 308 307 307 307 306 306 306 306 306 305 305 306 306 306 305 304 304 303 303 305 305 305 303 301 299 300 300 299 299 298 299 299 299 299 299 299 299 298 297 297
320 318 318 318 317 316 316 315 315 314 314 314 315 317 317 317 317 317 317 315 313 312 311 310 310 311 311 311 310 310 310 310 310 310 310 309 309 309 309 310 310 310 309 310 309 309 309 308 308 307 307 307 306 306 306 306 306 306 306 305 304 304 303 303 304 305 306 305 302 300 300 300 300 299 299 299 300 300 300 300 299 299 299 298 298
320 319 318 318 318 317 316 315 314 314 314 315 316 316 317 317 317 317 317 317 314 313 312 311 311 311 312 312 311 310 310 310 310 310 311 311 312 311 311 311 311 311 310 310 310 310 310 310 309 309 309 308 307 307 307 306 306 306 306 305 304 304 303 303 304 305 305 304 303 302 301 301 301 300 299 299 300 301 301 301 301 301 300 299 299
320 318 318 318 318 318 316 315 314 314 314 315 315 316 316 317 317 317 317 317 315 314 313 312 312 312 313 313 312 313 313 313 312 312 313 314 314 314 314 314 314 313 313 312 312 312 311 311 310 309 309 309 309 308 307 307 306 306 306 305 305 304 303 303 304 305 306 304 304 303 302 301 301 301 300 299 300 301 300 301 302 301 301 300 300
319 319 318 318 318 318 317 316 315 314 314 314 315 316 316 317 317 317 317 316 316 315 314 313 313 313 313 313 313 314 314 313 314 314 314 314 315 315 315 316 316 316 316 316 315 315 315 314 313 313 312 311 311 310 309 307 307 307 306 305 305 304 303 303 304 305 306 305 305 304 303 303 302 302 301 301 302 301 300 300 301 301 300 300 300
319 319 319 319 319 319 318 317 316 315 315 315 315 316 316 316 317 317 317 316 316 315 315 314 314 314 314 314 314 314 314 314 314 314 314 314 313 314 315 316 316 316 316 316 316 314 314 315 316 315 315 314 313 312 311 309 307 307 306 306 305 304 303 303 305 306 305 306 305 304 305 305 304 302 302 302 301 301 300 299 300 301 300 300 300
320 320 320 320 320 319 318 318 317 316 316 316 317 316 316 316 316 316 316 316 316 316 315 315 315 315 315 315 315 315 315 315 314 313 314 313 312 313 314 315 316 316 316 316 316 314 314 315 316 315 315 316 315 315 314 312 309 307 306 307 306 304 303 303 305 305 305 306 306 305 305 305 304 302 302 301 300 300 300 300 300 300 300 299 300
318 319 319 319 319 318 318 318 317 317 317 317 317 317 316 316 315 316 316 316 316 316 315 315 315 315 315 315 315 316 316 315 314 313 313 314 313 312 313 315 316 317 317 317 317 317 317 317 317 317 317 317 316 316 316 314 311 307 306 306 306 304 303 303 304 304 305 305 304 303 303 304 303 301 301 301 300 299 299 299 299 299 299 299 299
317 318 318 318 318 318 318 318 318 318 318 318 317 317 316 316 316 316 316 316 316 315 315 316 316 315 315 314 315 316 316 314 313 313 314 315 314 314 315 316 314 314 315 316 316 317 317 317 317 317 317 317 317 316 315 315 312 307 305 305 304 303 302 302 303 303 303 304 303 302 302 303 302 301 300 300 299 299 299 299 299 298 298 298 298
313 315 316 317 317 317 318 318 318 318 318 318 318 317 317 316 316 316 316 316 315 315 315 315 315 315 315 314 315 316 316 314 313 314 315 315 315 315 314 311 308 309 312 314 315 315 315 315 315 316 316 315 315 314 313 312 311 307 305 304 302 301 301 301 302 302 302 303 303 303 302 301 301 300 299 298 297 298 299 298 298 298 297 297 297
307 309 312 314 316 316 317 317 317 318 317 317 317 317 317 316 316 316 316 316 315 315 315 314 314 315 314 315 316 316 315 314 313 314 315 316 315 312 309 307 308 311 312 312 313 313 313 314 314 313 313 313 312 311 310 309 308 306 304 302 300 300 301 301 301 301 301 301 301 301 299 299 299 299 297 296 296 297 297 297 297 296 296 296 295
304 305 307 309 312 314 315 316 317 317 317 317 317 317 317 316 316 316 316 316 315 315 315 315 315 315 315 316 316 315 314 314 314 315 316 315 311 307 306 307 309 309 310 310 310 311 311 312 312 311 310 310 309 308 307 307 307 304 302 300 299 300 300 300 301 300 300 299 299 298 298 297 297 297 295 295 294 295 294 294 294 295 295 295 295
303 303 304 304 306 308 311 313 315 316 317 317 317 317 317 316 316 316 315 315 315 315 315 315 316 316 316 316 315 315 315 315 315 316 315 311 308 306 306 307 307 308 309 309 309 309 309 309 309 308 307 306 306 305 305 305 304 302 300 299 299 299 299 300 300 299 299 299 298 298 297 296 296 295 294 293 293 293 293 294 294 295 295 296 296
302 302 302 303 303 304 306 308 311 313 314 315 316 316 317 316 316 316 315 315 315 315 315 316 316 317 316 315 315 316 315 316 316 315 312 309 307 307 307 308 307 308 309 308 308 308 307 308 307 306 305 304 303 303 302 302 301 300 300 299 299 299 299 299 299 298 298 297 296 296 296 295 294 294 293 292 292 292 293 295 295 295 295 295 296
300 301 301 301 302 303 304 305 308 311 312 313 314 315 316 316 316 316 315 315 315 315 315 315 316 316 315 315 315 315 315 316 315 313 310 309 308 308 308 308 308 308 308 307 307 306 305 305 305 305 304 303 303 303 302 301 300 300 300 299 299 299 298 297 297 296 296 295 295 294 294 293 293 292 292 292 292 291 292 294 294 294 294 295 295
299 299 300 300 301 302 303 303 305 308 311 313 314 314 315 316 316 316 316 316 316 315 314 314 314 314 314 315 315 315 316 315 313 311 310 310 309 308 308 308 308 308 307 306 305 304 304 303 303 303 303 302 302 302 302 301 301 300 300 300 300 298 297 296 295 294 294 294 294 293 293 293 292 292 292 292 291 291 292 293 293 293 294 294 294
298 298 299 299 300 301 302 303 304 305 308 311 313 314 314 314 315 315 315 314 314 313 313 312 313 313 314 315 315 315 315 313 312 311 311 310 309 309 308 308 308 308 306 305 303 303 302 302 302 301 301 301 301 301 301 301 300 300 299 300 299 297 296 295 294 293 293 293 293 293 293 293 293 293 292 292 292 292 292 292 292 292 293 293 293
298 298 298 299 299 300 301 302 302 303 305 307 309 310 311 311 310 310 312 312 311 311 311 312 311 311 312 314 314 314 313 312 311 311 310 310 310 309 308 308 308 307 306 303 302 301 301 301 300 300 300 301 300 300 300 299 299 298 298 297 297 295 295 294 293 293 293 293 293 293 293 293 293 293 293 293 292 292 292 291 291 291 292 292 292
298 298 298 298 299 299 300 301 302 302 303 304 306 307 308 307 307 308 309 309 309 309 310 310 311 311 312 313 313 312 312 312 311 311 310 310 310 309 308 308 307 306 305 303 302 301 301 300 300 299 299 299 299 298 298 297 297 296 295 295 295 294 294 293 293 293 293 293 294 294 294 294 293 293 293 292 292 292 291 291 291 291 291 291 291
297 297 298 298 298 298 299 300 300 301 302 303 304 305 306 306 306 306 306 307 307 307 308 309 310 310 311 312 312 312 311 311 310 310 310 310 309 308 308 307 306 305 304 303 302 301 300 299 298 298 297 297 297 297 296 295 295 294 294 294 293 293 293 293 293 293 293 293 293 293 294 293 293 292 292 292 291 291 291 290 290 290 290 290 290
296 296 297 298 298 298 298 299 299 300 301 302 303 304 305 305 305 306 305 306 306 306 306 306 306 307 309 310 311 311 310 310 309 309 309 308 307 306 306 305 304 303 303 302 301 300 299 298 297 296 296 296 296 295 295 294 294 293 293 293 293 292 293 293 293 293 293 293 293 293 293 292 292 291 291 291 290 290 290 290 290 289 289 290 290
295 295 296 297 297 298 298 298 299 299 300 301 301 302 304 305 305 305 305 305 305 305 304 304 304 305 307 308 309 309 309 308 307 306 305 305 304 304 304 303 302 302 301 301 299 298 297 297 296 296 296 295 294 294 293 293 293 293 292 292 292 292 292 293 292 292 292 292 292 292 292 291 291 290 290 289 289 289 290 290 290 289 289 289 289
294 294 295 295 296 297 297 298 298 298 298 299 300 301 302 304 305 305 305 305 305 304 304 304 305 305 306 306 307 307 306 305 304 303 302 302 302 302 302 301 300 300 299 298 297 297 296 296 295 295 294 293 293 293 293 292 292 292 292 291 292 292 292 292 292 292 292 291 291 291 291 290 290 289 289 288 289 289 289 289 289 289 289 289 289
293 293 294 294 295 296 297 297 297 297 297 298 299 300 301 302 303 305 305 305 305 305 305 304 304 305 305 305 305 304 303 301 301 300 300 300 301 300 299 299 298 297 297 297 296 295 295 294 294 293 293 292 292 292 292 292 291 291 291 291 291 290 290 290 290 290 290 290 290 290 290 289 289 289 289 288 288 289 289 289 288 289 289 289 289
293 293 294 294 295 296 297 297 297 298 298 298 298 298 299 300 301 303 304 304 304 304 304 304 304 304 305 304 303 301 300 300 301 302 302 302 301 299 298 298 297 296 296 295 295 294 294 293 293 292 292 292 292 292 292 291 291 290 290 290 290 289 289 289 289 290 290 290 290 290 290 289 289 289 288 288 288 289 289 289 289 289 289 289 289
292 293 293 294 295 296 296 297 297 298 299 298 297 297 298 299 300 300 301 302 303 304 304 304 304 303 303 303 302 301 301 302 303 305 305 304 302 301 299 298 297 296 295 295 294 294 293 293 292 292 292 292 292 292 292 291 291 290 290 289 289 289 289 289 289 289 289 289 289 289 289 289 289 289 288 289 289 289 289 289 289 289 289 289 289
291 292 293 294 295 296 296 297 298 298 299 299 299 298 298 298 299 299 298 299 300 302 304 304 303 302 302 302 302 302 302 302 304 305 304 302 301 301 299 298 296 295 294 294 294 293 293 293 293 292 292 293 292 292 292 291 291 290 289 289 289 289 288 288 289 289 288 288 288 289 289 288 288 289 289 289 289 289 289 289 289 289 289 289 289
291 291 293 293 294 294 295 296 298 298 299 299 299 299 298 298 298 298 298 298 299 300 302 302 301 301 302 302 302 303 302 303 304 304 301 299 298 298 297 296 295 295 295 294 293 293 293 293 293 292 292 292 292 291 291 290 290 290 289 289 289 288 288 288 288 287 288 288 288 289 289 289 289 289 289 288 288 288 289 289 289 289 289 289 289
291 291 291 292 292 293 294 295 296 298 299 299 298 298 298 299 299 298 299 299 300 300 301 301 301 301 301 302 302 303 303 304 304 301 299 297 297 296 295 295 295 294 294 293 293 293 293 293 293 292 292 292 291 290 290 290 289 289 289 289 289 289 288 287 286 286 287 288 288 289 289 289 289 288 288 288 288 288 289 289 289 289 289 289 289
291 291 291 291 291 292 293 294 295 297 299 299 298 298 298 298 299 299 298 299 300 300 300 300 301 301 302 302 301 302 304 304 303 301 298 297 296 295 295 295 294 293 293 292 292 293 293 293 292 292 292 291 290 290 289 289 289 289 289 289 289 289 288 287 286 287 288 288 288 289 289 289 288 288 288 288 288 289 289 289 289 289 289 289 289
292 291 291 291 291 292 292 293 295 296 298 299 299 298 298 297 298 299 298 298 299 300 300 300 300 301 301 301 301 302 304 304 302 300 298 295 294 295 294 293 293 292 292 292 293 292 292 292 292 292 291 291 290 289 289 289 289 289 289 289 289 289 287 286 287 288 288 288 289 289 289 289 288 288 288 288 289 289 289 289 289 289 289 289 289
292 292 291 291 291 291 292 293 294 295 297 298 299 298 298 298 298 298 298 298 298 299 299 299 301 301 302 301 300 301 303 304 302 298 296 294 294 294 293 292 292 292 292 292 292 292 292 292 292 291 291 290 289 289 289 289 289 289 289 289 289 288 287 286 287 288 288 289 289 289 289 289 288 288 288 288 288 289 289 289 289 289 289 289 289
292 292 292 291 291 291 292 292 293 294 296 297 298 298 298 298 298 298 298 298 298 298 297 298 300 302 302 299 298 299 302 302 299 296 294 294 294 294 293 292 292 292 292 292 292 292 291 291 291 291 290 290 289 289 289 289 289 289 289 289 288 286 286 287 287 288 289 289 289 289 289 289 288 288 288 288 288 289 289 289 288 288 288 289 289
292 292 292 292 292 292 292 292 293 293 294 296 297 298 298 298 298 298 298 298 297 297 297 298 299 299 298 298 297 297 298 297 295 294 293 293 293 293 293 293 292 292 292 292 291 291 291 291 290 290 290 289 289 290 289 289 289 289 288 287 286 285 286 287 289 290 289 289 289 289 288 288 288 288 288 288 288 288 288 288 288 288 288 288 289
292 292 292 292 292 292 292 292 292 293 293 294 296 297 297 297 297 297 297 297 296 296 296 297 296 295 295 296 295 294 294 293 293 292 292 292 292 292 292 292 292 292 292 291 291 291 290 290 290 289 289 289 290 289 289 289 289 289 288 286 285 285 287 288 290 290 289 289 289 289 288 288 288 288 288 288 288 288 288 288 288 288 288 288 289
293 293 293 292 292 292 292 292 292 292 293 294 295 296 297 296 296 296 296 296 295 295 295 296 296 294 294 293 292 292 292 292 291 291 291 292 292 292 292 292 292 292 291 291 290 290 290 289 289 289 289 289 289 289 289 289 289 288 286 285 285 286 287 288 289 290 289 289 289 289 288 288 287 287 287 288 288 288 288 288 288 288 288 288 288
293 293 293 293 292 292 292 292 292 292 293 294 295 296 296 296 296 296 296 296 295 294 295 295 295 293 292 292 293 292 292 292 292 292 291 292 292 292 292 291 291 291 291 290 290 290 290 289 288 289 289 289 289 289 289 288 288 287 286 285 285 286 287 288 290 290 289 288 289 288 288 288 287 287 287 287 288 288 288 288 288 288 288 288 288
293 293 293 293 292 292 292 292 292 293 293 293 294 295 296 296 296 296 296 295 295 294 294 294 294 292 291 292 293 293 292 292 292 292 291 291 291 291 291 291 290 290 290 290 289 289 289 288 288 289 289 288 289 288 288 287 287 286 285 285 285 286 287 289 290 290 288 288 288 288 288 287 287 287 287 287 287 288 288 288 288 288 288 288 288
293 293 293 293 293 292 292 292 292 293 293 293 293 294 295 295 295 295 295 294 294 294 293 292 291 291 290 291 292 292 292 292 292 291 291 291 291 291 291 290 290 290 290 289 289 289 289 288 288 288 288 288 288 288 287 287 286 286 285 284 285 287 288 289 290 289 288 288 288 289 289 288 287 287 287 287 288 288 288 288 288 288 288 288 288
293 293 293 293 293 292 292 292 292 292 293 293 293 293 294 294 294 294 294 294 293 292 292 291 290 289 289 290 291 292 292 292 291 291 291 291 291 291 290 290 290 289 289 289 289 289 288 288 288 288 288 288 288 287 286 286 286 285 284 284 285 287 289 289 290 289 288 288 289 289 289 288 287 287 287 288 288 288 288 288 288 288 288 288 289
292 292 292 292 292 292 292 292 292 292 292 292 293 293 293 294 294 294 293 293 292 291 290 290 289 289 289 290 291 291 291 291 291 291 291 291 291 290 290 290 289 289 289 288 288 288 288 288 288 288 288 288 288 286 285 286 286 285 285 285 285 286 288 289 289 289 288 289 289 289 289 288 287 287 288 288 288 288 288 288 288 288 288 289 289
292 292 292 292 292 292 291 291 292 292 292 292 292 292 292 293 293 292 292 291 290 290 289 289 289 289 290 291 291 291 291 291 291 291 291 291 291 290 290 290 289 289 289 288 288 288 288 288 288 288 288 288 287 286 285 286 286 286 285 285 285 286 287 288 288 288 289 289 289 289 289 288 287 287 288 288 288 288 288 288 288 288 288 289 289
291 291 292 291 291 291 291 291 291 291 291 292 291 291 292 292 291 291 291 290 290 289 289 289 289 290 290 291 291 291 291 291 291 291 291 291 291 290 290 290 289 289 289 288 288 288 288 288 288 288 288 288 287 286 285 286 286 286 286 285 285 285 286 287 287 288 289 289 289 289 289 288 287 287 288 288 288 288 288 288 288 288 288 288 289
291 291 291 291 291 291 291 290 291 291 291 291 291 291 291 291 291 290 290 289 289 289 289 289 290 290 290 291 291 291 291 291 291 291 291 291 290 290 290 289 289 289 289 288 288 288 288 288 288 288 288 288 287 286 286 286 286 286 286 285 285 285 286 287 287 288 289 289 289 289 289 288 287 287 288 288 289 289 288 288 288 288 288 289 289
292 291 291 290 290 290 290 290 290 290 290 290 291 291 291 291 291 290 290 289 289 289 289 290 290 291 291 292 292 292 291 291 290 290 290 290 290 289 289 289 289 289 288 288 288 288 287 287 287 288 288 288 287 286 286 287 286 286 286 286 285 285 285 287 287 288 289 290 290 289 289 288 287 288 288 288 288 288 288 288 288 288 288 289 289
291 291 291 291 290 290 290 290 290 290 290 290 290 290 290 291 291 290 290 289 289 290 290 291 291 292 292 292 292 291 291 291 290 290 290 289 289 289 289 289 288 288 288 287 287 287 287 287 287 287 288 288 287 286 286 286 287 286 286 286 285 285 285 286 287 288 289 290 290 289 288 288 287 288 288 288 288 288 288 288 288 288 288 289 289
291 291 291 291 291 290 290 290 290 290 289 290 289 290 290 290 290 290 290 290 290 290 291 291 291 292 291 291 291 290 290 290 289 289 289 289 289 289 288 288 288 287 287 287 287 287 287 287 287 287 288 288 287 286 286 286 287 286 286 286 286 285 285 286 288 289 290 290 289 289 288 288 288 288 288 289 289 288 288 288 288 288 288 289 289
292 291 290 290 290 290 290 290 290 290 290 290 289 289 290 290 290 290 290 290 290 291 291 291 291 291 291 290 290 289 289 289 289 289 289 288 288 288 288 287 287 286 286 286 286 286 287 287 287 287 288 287 287 286 286 286 286 286 286 286 286 286 285 286 287 289 289 289 289 289 289 288 288 288 288 288 288 288 288 288 288 288 289 289 289
Wind_Speed
25 25 25 24 23 24 23 20 18 16 14 14 14 11 10 11 12 11 10 8 7 8 8 8 7 6 5 5 5 4 4 4 5 5 6 7 7 7 8 8 8 9 9 9 9 9 9 9 8 7 7 6 6 7 7 7 8 8 8 8 8 8 7 7 8 7 5 4 4 5 8 10 10 11 12 12 13 12 12 13 13 13 13 11 9
24 24 24 23 23 25 23 18 15 15 16 17 15 10 9 11 11 12 12 11 9 8 9 10 9 8 7 6 5 5 4 4 4 4 4 4 4 4 5 5 5 6 6 7 7 8 8 7 6 6 5 5 5 5 6 7 7 7 7 7 7 7 7 7 7 7 6 5 4 4 7 8 8 9 11 12 13 12 10 13 15 15 16 13 9
22 23 23 22 23 24 20 15 14 15 17 19 17 13 12 13 12 13 14 14 12 11 10 10 10 10 9 8 7 6 5 5 4 3 3 2 2 1 1 2 2 2 3 4 5 5 5 5 4 4 4 4 4 4 5 5 6 6 6 6 7 7 7 7 6 7 6 5 4 3 4 6 6 7 9 10 13 12 10 11 15 16 18 17 11
20 22 22 22 23 22 18 16 17 19 22 22 20 17 16 14 13 13 15 16 15 14 13 13 12 12 10 9 8 7 6 6 6 5 5 4 4 3 3 3 4 4 3 3 3 3 4 4 4 4 4 4 5 4 4 5 5 5 6 6 6 6 6 7 6 6 6 5 4 3 3 4 4 5 7 7 8 10 9 9 11 14 19 19 14
18 21 21 22 22 20 17 18 21 24 25 22 18 16 15 14 13 14 15 16 16 15 15 15 15 14 12 10 9 8 6 6 6 5 4 4 4 4 5 5 6 7 7 7 7 6 6 6 6 6 6 7 7 7 6 6 6 6 5 5 5 4 4 5 6 6 5 5 4 3 3 2 2 5 7 6 5 7 8 6 6 11 17 20 16
16 19 21 21 21 19 19 21 23 25 25 21 16 14 14 13 12 13 15 16 16 15 15 16 16 15 13 11 9 7 6 4 4 3 2 2 3 4 6 7 8 9 9 10 10 10 10 10 9 10 10 10 10 10 10 9 8 8 7 6 5 4 3 3 4 4 4 5 4 3 2 2 2 3 7 9 8 8 10 8 5 7 13 16 14
14 17 19 20 20 21 22 23 25 26 26 23 17 15 15 14 14 14 15 16 17 16 15 15 15 14 13 11 9 7 5 2 1 2 2 3 5 7 8 9 11 12 12 12 12 13 13 13 13 13 13 13 13 13 13 13 12 11 10 9 8 6 5 4 4 3 3 3 3 2 1 1 3 3 6 9 8 8 12 12 9 10 13 15 13
12 14 16 18 20 21 23 24 26 27 28 25 22 20 18 17 16 15 16 17 17 16 15 15 15 14 12 11 10 7 5 2 2 3 4 6 8 9 10 11 12 13 12 13 14 15 16 15 15 16 16 15 15 15 16 16 15 14 13 12 10 9 7 6 5 4 3 2 2 1 1 1 2 3 5 6 5 6 11 13 12 13 16 17 12
11 13 15 17 19 20 22 23 25 27 27 25 24 24 22 20 18 16 17 17 16 15 14 14 13 13 13 12 11 9 7 6 6 6 9 12 12 10 11 12 13 13 13 14 16 17 17 16 17 17 18 17 16 16 16 18 18 18 16 14 13 12 9 8 6 4 3 2 2 0 1 2 2 3 3 4 5 6 9 10 10 12 15 17 12
11 13 14 16 17 17 18 20 22 24 25 24 24 25 24 23 21 19 19 21 19 16 14 13 13 14 14 14 14 13 13 14 11 10 13 15 15 15 15 15 15 16 16 16 17 17 16 17 18 18 18 18 17 15 15 16 18 20 19 16 15 14 12 9 7 4 3 2 1 1 3 4 2 3 3 3 5 6 6 8 9 11 13 15 12
8 11 12 13 14 15 16 17 19 21 23 24 24 24 24 25 24 22 23 25 23 18 15 16 17 16 16 18 18 17 19 21 18 15 16 17 18 19 18 17 17 17 16 15 15 15 15 16 17 16 16 16 16 15 14 13 15 18 19 18 16 14 12 10 7 5 3 3 2 2 3 4 3 3 4 4 5 6 7 7 9 10 10 12 12
4 6 8 11 13 13 12 12 13 14 17 19 22 23 24 25 25 26 26 26 23 19 18 22 25 26 27 28 25 21 23 24 21 17 18 19 18 17 16 15 14 13 13 13 13 14 14 15 15 14 13 13 13 13 13 11 12 15 18 17 15 13 11 10 7 5 3 3 3 3 4 4 4 4 3 4 5 6 8 8 7 8 9 10 12
3 3 5 7 10 10 8 7 8 9 10 12 14 19 23 25 27 28 28 26 24 22 22 27 31 34 34 31 27 26 26 25 20 16 17 18 16 14 12 10 10 10 10 10 10 9 10 11 11 10 9 9 9 9 9 9 9 12 16 16 15 14 11 9 7 5 4 4 4 4 5 5 4 4 5 7 7 7 8 8 8 9 9 10 12
11 7 5 5 7 9 8 7 7 8 9 9 9 13 18 23 27 30 29 28 26 26 28 31 33 34 32 28 28 28 27 23 18 15 16 15 12 10 8 6 6 6 4 3 3 4 4 5 6 6 6 6 5 5 5 6 7 11 15 16 15 14 11 8 6 6 6 6 5 5 7 6 4 4 7 8 7 6 7 9 9 10 11 13 16
17 15 11 7 5 6 8 10 11 12 14 13 12 13 14 18 23 26 26 26 26 28 31 32 31 30 28 27 27 26 23 19 16 14 14 12 10 7 6 4 3 2 2 2 3 3 4 4 4 4 3 4 4 3 2 3 7 13 16 15 13 11 9 7 7 7 6 6 6 6 6 6 4 6 8 7 7 7 8 10 12 12 13 15 16
18 18 15 13 10 6 6 10 13 15 17 17 17 18 17 19 23 25 24 25 28 29 30 29 28 26 25 24 24 22 19 16 14 13 13 13 11 9 7 6 5 5 4 4 5 5 6 6 5 5 5 5 5 4 2 3 9 13 14 12 10 8 6 6 6 6 5 5 5 5 5 6 6 7 7 7 7 8 9 10 11 10 12 13 14
18 18 17 17 16 13 8 8 10 13 15 18 20 20 20 21 24 25 25 26 27 27 25 24 24 22 21 21 20 18 16 14 13 15 17 15 12 10 9 7 6 5 5 5 6 6 6 6 6 7 6 5 4 4 3 5 8 10 9 8 7 5 4 4 4 4 4 4 4 5 6 7 7 7 7 8 8 8 8 9 9 9 11 13 13
19 19 18 18 18 18 15 11 9 10 11 14 17 18 19 20 21 22 22 21 22 21 21 21 21 19 19 19 18 16 15 14 17 19 18 15 13 11 9 8 7 6 5 5 5 6 6 6 6 6 5 4 3 3 4 4 5 6 6 6 5 4 4 3 3 3 4 4 5 6 6 6 6 7 8 9 10 10 9 9 10 11 12 13 14
18 19 18 18 17 18 18 15 11 10 10 11 11 13 15 16 17 17 18 18 20 20 20 19 18 16 16 15 15 15 16 19 20 19 17 14 13 11 9 8 7 6 5 5 5 6 5 5 5 5 4 4 3 3 3 4 4 4 4 4 4 3 3 2 2 2 3 3 4 5 6 7 8 9 10 11 12 12 10 10 10 12 13 14 15
17 17 18 17 16 16 17 17 14 13 13 12 11 12 12 12 12 13 14 15 17 16 15 14 14 14 14 15 16 17 19 21 20 17 15 14 13 12 10 9 8 7 7 6 6 7 6 6 5 4 3 3 2 2 2 2 2 2 3 3 4 4 3 3 3 3 4 4 6 7 7 8 9 9 10 10 11 11 11 11 11 12 14 16 16
17 17 17 17 16 16 16 16 15 14 14 14 13 12 13 13 13 13 13 14 15 14 14 15 16 16 15 16 17 17 18 19 18 16 14 13 12 12 11 10 9 8 8 8 8 7 7 6 5 4 2 2 1 1 1 1 1 2 3 3 3 3 3 3 4 5 5 6 7 7 7 8 9 9 9 10 11 11 12 13 13 14 15 16 17
17 18 18 18 18 17 16 15 15 14 14 15 16 15 15 17 17 16 16 16 17 17 16 17 18 17 16 16 17 17 16 16 16 16 14 13 13 12 11 10 10 9 9 10 9 8 8 7 6 4 3 2 2 2 1 1 1 0 1 1 2 2 2 2 3 4 4 5 6 7 8 9 9 10 11 11 12 12 13 14 14 15 15 16 18
19 19 19 19 19 18 17 16 15 15 14 14 16 18 19 20 20 19 20 20 20 20 19 19 19 19 18 16 16 17 17 17 16 15 15 14 14 13 12 11 10 10 10 10 10 9 9 8 7 6 4 3 2 1 0 1 1 1 1 1 2 3 2 2 3 4 5 6 8 9 10 10 11 11 12 12 13 13 14 15 15 15 15 16 17
20 21 20 20 20 19 19 18 16 15 14 13 13 17 21 23 23 23 23 24 24 23 23 23 22 22 21 20 19 19 19 18 17 16 16 16 15 13 12 11 10 9 9 10 11 11 10 10 8 6 4 2 1 0 1 1 1 1 1 2 3 3 3 3 4 6 7 8 9 10 10 11 11 12 13 13 14 15 15 15 15 14 15 16 16
19 20 20 20 21 21 20 20 18 15 14 13 12 12 16 22 25 25 25 25 27 27 27 26 27 26 25 24 23 21 21 20 19 18 17 16 15 13 12 11 10 9 10 11 12 12 11 10 8 6 4 3 2 2 2 2 2 1 1 3 3 4 4 5 6 7 8 8 9 10 11 11 11 12 13 13 14 15 15 15 14 14 14 15 15
17 18 20 21 23 23 22 21 21 18 15 14 13 12 12 15 20 24 26 26 28 30 31 29 28 28 27 26 25 23 22 21 20 19 18 17 16 14 13 12 11 10 11 13 13 12 10 9 7 6 5 4 4 4 3 2 1 1 3 4 4 4 4 5 6 7 8 9 9 10 11 11 12 12 12 12 12 13 13 13 13 13 13 14 15
17 18 18 19 20 21 20 22 23 21 18 16 15 15 14 12 11 16 23 26 27 28 30 30 29 29 27 26 25 24 23 23 22 22 21 19 17 16 14 13 13 13 14 15 14 12 11 9 8 7 6 5 4 3 3 2 1 2 3 4 4 4 5 6 6 6 7 8 9 11 12 13 13 12 12 11 12 12 12 12 13 14 14 15 16
18 18 17 17 17 17 18 20 21 20 19 18 16 15 16 16 14 14 17 20 22 22 24 27 28 27 26 26 26 24 23 23 23 21 20 19 19 18 17 16 15 15 16 16 15 13 11 10 9 8 7 5 4 3 3 2 1 2 2 2 3 4 6 7 7 6 7 8 9 11 13 13 13 12 12 12 12 13 13 13 14 14 14 14 16
20 19 18 17 17 16 16 19 19 18 19 19 17 14 16 19 19 19 18 16 16 19 22 23 23 21 19 19 18 16 14 16 18 18 17 17 16 16 17 17 17 16 15 14 14 14 13 11 10 8 7 5 4 3 3 2 2 2 2 3 3 4 5 7 7 7 8 9 9 11 13 13 12 12 12 13 14 14 14 14 14 15 14 14 15
21 20 18 17 16 15 15 16 17 18 18 18 17 15 16 16 17 20 23 19 16 16 18 17 16 14 13 12 11 12 15 19 21 21 19 17 14 13 15 16 16 16 15 13 13 14 13 11 9 7 6 5 3 3 2 2 2 2 3 4 4 4 6 7 7 8 9 9 9 11 12 12 12 13 13 14 15 15 14 14 14 14 14 15 16
21 20 19 18 17 16 15 15 15 16 17 17 16 16 15 14 13 17 22 22 20 19 19 17 13 12 14 16 18 20 22 23 24 24 21 18 16 15 16 16 15 15 15 14 14 14 12 10 8 7 5 4 3 2 2 2 2 2 3 4 4 6 7 7 8 9 10 10 10 11 12 12 13 13 14 14 15 15 15 14 14 14 15 15 16
21 20 19 20 19 18 17 15 14 14 15 16 17 17 15 11 9 11 14 17 21 24 26 25 21 20 22 23 24 26 25 23 23 24 21 19 18 17 17 16 16 15 15 14 13 13 10 9 8 6 4 3 3 3 3 2 2 2 3 5 6 7 7 8 10 11 10 10 10 11 11 11 12 13 14 14 14 15 15 15 14 14 15 15 16
22 21 20 19 19 19 18 16 15 14 14 15 17 18 16 13 11 9 8 9 15 21 25 27 27 28 27 26 27 27 25 21 21 22 21 21 20 19 18 17 17 17 16 13 12 11 9 8 7 6 4 4 3 3 3 2 2 2 4 5 7 8 9 10 11 11 10 9 10 11 11 11 12 13 14 14 14 15 15 15 15 14 15 15 15
22 22 21 19 19 18 18 17 15 15 14 14 16 17 18 18 17 16 12 9 9 11 15 19 23 25 26 24 23 25 24 21 22 24 24 23 22 21 21 21 19 18 15 12 11 11 9 7 7 6 5 5 4 4 3 2 2 3 5 6 8 9 10 10 10 10 9 10 10 11 11 11 12 13 14 14 14 15 14 14 14 14 14 15 15
22 22 22 22 21 20 18 17 16 15 15 15 15 17 18 18 18 18 17 16 13 11 11 12 13 16 19 20 21 24 24 22 24 26 26 25 25 24 24 23 20 16 12 10 10 10 8 7 7 6 5 6 5 4 3 2 2 4 5 7 9 10 10 10 9 9 10 10 11 11 11 12 13 14 14 15 15 14 14 14 14 14 15 15 16
22 21 20 21 22 21 19 18 17 16 16 15 14 15 17 17 17 17 17 16 15 14 12 12 11 13 15 15 16 19 21 23 26 28 27 27 27 26 24 20 17 14 12 10 10 9 8 7 7 6 6 6 5 4 2 1 3 4 7 9 10 10 10 9 9 10 10 11 11 11 12 13 13 14 14 14 14 14 14 14 14 14 15 16 17
22 21 19 18 19 18 18 17 17 17 17 15 13 13 15 16 16 17 16 16 16 16 16 16 16 16 17 17 16 19 23 25 27 27 27 27 26 23 21 19 17 15 13 12 11 10 9 7 7 7 7 6 5 3 1 2 3 5 8 10 10 10 10 9 10 12 12 11 11 12 12 13 13 13 14 14 15 14 14 14 14 15 16 16 17
22 22 20 18 17 16 16 16 16 17 18 16 14 13 12 13 15 17 16 16 18 19 19 20 19 18 21 23 23 25 28 29 28 28 28 27 23 19 18 19 17 15 13 12 12 10 9 8 8 7 7 6 4 2 1 3 4 6 9 11 10 10 10 9 11 13 13 11 11 12 12 13 13 13 14 14 15 15 14 14 15 16 16 16 16
20 21 21 20 19 17 14 13 14 15 16 16 16 14 12 11 12 13 13 14 17 19 21 23 22 20 24 30 31 31 32 31 29 28 27 24 20 18 18 18 16 14 13 13 12 10 9 9 9 8 6 5 3 1 2 3 5 8 11 11 9 9 9 8 10 12 11 10 11 12 12 13 13 13 14 14 15 15 15 15 15 16 16 17 17
15 16 18 19 20 19 17 14 12 12 14 16 17 16 14 12 11 10 10 11 14 17 21 25 26 24 26 32 37 37 33 28 26 25 24 22 20 20 20 18 16 15 14 12 11 11 10 10 9 8 6 4 2 1 3 5 7 9 10 10 9 9 9 9 11 12 11 10 11 11 12 12 13 13 14 14 15 15 16 15 15 15 16 17 17
10 7 10 13 17 18 16 14 12 11 11 14 16 15 14 13 12 11 10 10 11 13 15 19 23 26 28 32 37 37 33 27 26 26 25 24 23 21 20 18 16 15 14 13 12 11 11 10 9 8 6 3 1 2 4 6 8 10 10 10 10 10 10 10 13 13 11 10 10 11 12 13 14 13 14 15 16 16 15 15 15 15 15 16 17
11 3 4 9 13 15 14 14 14 13 11 11 13 14 14 13 12 11 10 10 10 10 9 9 12 19 26 30 32 32 31 30 29 28 26 24 23 21 19 17 15 14 13 12 11 11 11 10 9 7 5 2 1 2 4 7 9 10 10 11 12 12 11 11 13 13 11 10 11 14 16 18 16 14 13 15 16 16 15 14 15 15 15 16 16
12 8 3 4 9 11 11 11 12 13 11 9 10 12 11 11 10 10 11 11 12 12 12 10 9 13 21 27 28 28 30 31 30 29 27 25 23 21 18 16 15 14 13 12 11 10 10 9 8 6 4 2 1 3 5 7 9 10 12 12 13 12 12 12 13 14 14 14 16 18 19 20 17 13 13 15 16 16 15 14 15 16 16 16 16
12 11 8 5 5 6 7 7 9 10 10 8 8 10 11 10 10 10 11 12 13 13 14 16 15 14 18 24 26 27 29 31 29 27 26 24 21 19 18 16 15 14 13 11 10 10 9 8 7 6 4 1 2 4 5 7 8 11 13 13 12 12 12 12 14 16 17 17 18 18 19 19 16 13 13 14 16 16 15 14 15 16 17 16 16
12 11 10 8 7 6 5 5 7 8 9 9 10 10 10 9 10 11 12 12 13 14 16 21 22 16 13 18 25 27 28 29 28 27 26 24 20 18 17 15 14 13 12 10 9 9 8 8 7 6 4 1 2 4 5 6 8 11 13 13 12 12 12 13 14 16 17 18 18 18 19 19 16 14 14 14 15 15 15 14 14 15 16 16 17
14 13 13 11 10 9 9 7 7 7 9 11 11 11 10 9 10 12 14 15 18 19 20 24 25 17 11 18 27 28 26 27 27 25 24 22 18 17 16 14 13 12 10 8 8 7 6 6 6 5 4 1 2 4 5 7 8 10 12 13 13 12 13 13 14 16 17 17 17 18 19 19 16 14 14 14 14 14 14 14 14 15 15 16 16
16 16 16 15 13 12 12 11 10 10 10 12 12 12 12 11 12 15 16 18 21 22 21 23 26 22 18 21 26 25 23 25 25 23 21 19 17 16 15 13 12 10 8 7 7 6 5 5 5 5 4 2 2 3 5 7 9 10 11 12 13 13 13 13 14 15 16 16 16 17 18 18 16 14 13 14 14 14 13 13 13 14 15 15 15
14 15 16 16 16 16 15 15 14 13 12 12 13 13 14 14 15 15 16 18 21 23 23 24 26 26 23 22 22 21 22 23 23 22 20 19 17 15 13 11 10 9 8 7 7 6 5 4 4 4 4 2 2 4 5 7 9 10 11 11 12 13 13 13 14 15 15 15 16 17 17 17 16 14 13 13 14 14 14 14 14 13 14 14 14
13 13 14 15 17 17 16 16 16 16 15 15 15 14 14 15 15 16 18 20 24 26 26 25 25 24 22 21 21 21 22 23 23 22 21 18 15 13 11 9 8 7 7 8 8 7 5 4 4 4 4 2 2 4 6 7 9 10 11 10 11 13 13 13 14 15 14 14 15 16 15 15 14 13 12 13 13 13 13 14 14 13 13 14 14
16 15 13 13 14 14 15 15 16 18 19 19 19 17 17 17 18 20 22 24 25 25 24 24 23 22 21 21 22 23 23 24 23 21 19 16 14 11 9 7 6 7 7 8 7 6 5 4 4 4 4 3 3 4 6 7 9 10 11 10 11 13 13 13 13 13 13 13 15 15 15 15 16 15 14 13 13 13 13 13 13 13 13 14 14
18 17 15 13 12 13 14 15 17 19 20 20 20 21 22 23 23 24 24 24 24 23 22 21 21 20 20 21 22 23 23 22 21 19 16 14 11 9 7 6 6 6 7 7 6 5 5 4 4 4 4 3 3 5 6 8 9 11 11 9 10 12 13 12 12 12 11 12 13 14 14 15 17 17 16 15 13 12 13 13 13 13 13 14 14
Wind_Direction
182 186 185 188 196 195 190 186 185 188 190 190 201 215 227 232 226 219 211 200 200 202 203 203 191 178 167 151 138 127 116 116 120 116 110 111 113 116 121 124 123 124 126 128 130 131 133 135 136 133 127 123 120 117 116 116 114 111 109 105 99 93 90 91 100 115 118 96 88 79 67 62 55 55 59 59 58 59 56 52 49 45 43 37 23
184 188 189 195 203 199 192 190 193 195 196 206 223 236 244 247 237 226 218 207 204 205 204 203 197 191 188 184 180 173 168 158 143 135 128 122 119 119 127 135 134 130 131 135 141 143 142 144 144 141 137 134 133 133 131 132 131 125 120 118 112 101 97 99 103 114 127 124 114 95 72 67 61 53 54 54 52 50 46 44 43 39 37 39 31
188 191 194 200 201 197 193 196 200 200 203 216 233 242 249 254 247 233 225 215 207 206 208 206 201 199 199 199 200 197 196 194 183 177 175 169 172 174 176 187 184 171 154 151 156 159 159 163 168 167 162 160 159 159 155 150 148 144 134 125 119 107 98 103 106 113 127 131 128 122 78 66 60 50 46 43 40 40 36 32 33 30 26 29 31
193 195 200 201 197 196 200 203 206 210 212 219 231 238 241 246 246 235 227 222 214 207 206 206 202 201 202 202 203 203 203 204 204 208 214 220 230 244 266 272 269 266 258 241 224 214 204 201 212 217 211 208 205 199 192 181 167 160 152 136 127 114 98 99 102 108 122 129 129 124 90 70 59 41 34 28 24 26 26 22 24 23 18 19 20
199 200 201 200 200 205 207 209 216 218 216 220 233 240 238 240 242 237 231 229 222 211 204 203 202 200 199 197 193 191 192 197 204 213 224 238 250 263 278 286 288 283 278 274 268 263 258 247 243 243 241 239 234 229 224 212 199 192 183 166 152 139 117 109 104 103 112 125 132 117 82 72 52 30 25 24 16 10 10 5 5 8 8 10 10
202 204 204 205 211 216 213 214 220 221 219 225 236 243 244 244 244 241 235 231 226 218 207 201 201 199 196 191 182 176 176 182 196 211 234 279 303 309 307 304 304 300 294 289 282 277 273 267 261 255 250 250 250 247 242 233 226 223 218 205 193 179 162 140 120 109 110 119 131 127 97 61 43 26 15 15 17 11 8 0 348 351 356 359 359
207 207 209 212 217 219 217 219 221 222 226 232 241 249 249 245 244 244 238 231 226 220 210 203 201 197 188 176 165 159 154 144 192 227 243 309 330 330 324 318 314 308 303 299 295 290 285 278 272 267 260 258 258 256 251 244 239 235 230 222 213 201 188 176 158 139 130 127 127 125 116 20 9 4 2 9 14 12 7 2 350 345 346 348 348
217 217 217 220 224 225 225 224 223 225 230 238 249 257 255 243 238 238 236 230 222 215 210 204 198 193 188 179 169 161 156 163 265 258 267 299 312 320 324 319 311 305 301 299 297 292 288 284 280 277 274 271 268 264 258 251 245 236 229 225 220 211 198 190 187 175 158 156 151 131 163 288 346 346 353 8 13 3 1 357 346 339 340 342 340
224 228 231 234 238 238 235 232 230 232 237 244 250 254 252 240 230 232 233 225 214 206 203 200 197 197 200 201 196 196 208 220 235 261 279 291 293 297 308 309 304 302 301 295 288 284 282 280 279 280 282 281 277 272 265 258 250 241 234 230 224 215 204 199 199 189 180 191 191 203 296 287 333 344 342 0 0 350 350 349 340 334 334 335 333
228 233 239 244 248 247 242 239 238 240 244 248 248 247 242 232 226 228 226 213 203 198 198 202 206 206 208 214 220 232 239 233 234 259 274 274 270 269 281 294 297 296 293 285 279 278 277 276 277 278 280 280 279 276 271 263 254 246 243 242 235 222 213 208 205 197 203 242 240 278 313 309 323 334 322 331 342 340 340 340 334 331 330 331 330
232 236 242 248 251 250 247 245 243 245 246 246 244 239 232 226 223 221 215 209 207 212 221 226 224 224 232 242 246 246 240 234 238 253 260 255 251 254 268 286 292 287 282 278 276 277 278 279 279 277 276 276 276 277 274 268 258 246 241 243 241 232 223 216 210 209 225 254 255 265 299 296 290 303 307 317 327 330 331 327 324 327 328 326 324
253 250 253 254 253 250 250 249 246 246 246 243 240 234 226 222 218 212 209 211 215 223 232 234 235 238 242 247 250 245 234 230 234 244 246 243 244 254 267 279 281 277 277 279 280 281 282 284 286 284 281 278 275 276 274 269 261 243 232 232 230 223 220 220 219 225 241 258 263 263 272 278 279 279 286 307 316 317 319 316 313 318 318 312 312
1 304 287 276 259 247 243 246 242 239 239 238 236 229 223 219 215 212 212 215 221 224 221 223 231 236 235 237 240 237 229 226 229 236 237 236 243 254 260 262 265 271 276 280 283 288 290 292 294 294 290 281 276 279 278 270 255 233 221 218 213 209 213 221 227 240 252 258 263 259 261 268 272 267 276 296 309 310 310 311 311 311 306 301 302
38 24 350 319 279 253 241 236 230 227 228 229 230 227 222 219 217 216 215 216 222 224 217 218 227 230 229 229 229 227 226 225 226 231 232 231 235 239 236 236 248 259 270 290 312 320 316 313 311 306 298 291 287 288 285 270 240 214 204 201 201 204 212 224 236 249 254 258 261 258 262 266 261 270 287 298 305 303 301 306 309 306 302 300 300
34 34 30 18 340 284 261 249 237 227 224 224 227 230 227 222 218 217 217 222 227 224 218 219 225 225 225 224 223 223 224 222 224 228 222 210 200 194 188 183 177 149 99 64 47 38 28 17 3 350 342 335 330 326 304 244 205 192 189 190 196 205 217 231 245 257 260 264 267 261 264 271 270 279 294 301 301 298 300 304 304 300 299 300 299
19 21 22 18 11 347 289 265 252 241 234 233 237 241 241 233 225 224 229 235 235 227 221 222 224 223 223 220 218 218 218 217 218 211 192 178 169 162 152 139 123 109 99 89 79 66 55 50 46 38 29 19 15 21 49 163 181 182 183 189 197 209 225 240 252 265 271 274 277 276 278 285 287 288 294 298 298 302 305 302 299 297 296 298 296
8 7 5 1 358 353 333 288 264 253 244 240 242 244 244 238 231 228 230 234 232 227 223 223 221 218 219 219 215 213 211 207 196 180 170 166 164 158 148 138 127 116 106 94 80 71 64 59 57 55 50 46 49 64 96 151 179 186 191 197 203 211 227 243 257 271 283 289 291 292 290 289 291 293 298 299 298 304 304 298 299 302 298 297 296
359 356 353 351 347 344 338 317 285 270 262 251 245 243 241 239 236 230 226 228 232 230 226 223 218 213 216 218 213 206 198 183 172 169 169 167 163 157 152 147 138 125 109 95 85 79 71 64 61 64 69 80 98 119 137 158 179 192 198 198 196 201 217 238 268 287 298 305 305 303 301 298 295 293 293 293 295 301 299 292 297 300 294 292 295
348 345 342 341 338 336 334 324 302 282 277 268 253 242 237 233 230 228 224 225 230 229 223 218 212 205 203 200 192 184 176 168 168 171 172 167 161 157 155 151 145 137 127 116 107 98 89 83 80 80 89 103 114 131 145 155 166 179 185 175 165 179 211 236 263 283 295 301 301 301 297 293 293 292 289 291 294 295 291 285 288 291 288 288 291
336 334 330 329 329 329 329 326 313 292 278 268 252 235 225 215 210 213 215 217 217 211 199 191 183 174 170 168 167 169 168 168 171 174 171 167 164 161 160 157 156 156 151 141 131 123 118 111 106 102 99 103 109 114 134 159 172 170 164 154 157 181 215 239 255 271 284 288 290 292 291 289 290 290 288 289 292 290 285 281 280 282 282 284 284
326 324 322 321 321 322 324 325 318 301 281 265 251 229 207 195 191 190 193 198 195 184 175 172 166 161 163 165 165 167 169 170 171 170 170 170 168 167 166 164 163 166 163 155 146 139 135 128 122 118 111 112 127 131 145 162 165 166 164 164 181 204 221 247 272 284 290 293 294 293 291 290 290 289 288 289 288 285 284 283 280 278 277 278 281
319 319 318 317 315 314 316 319 319 308 290 268 252 232 207 195 189 184 184 189 187 180 175 174 168 164 166 168 167 167 169 171 171 170 171 174 173 173 174 171 170 174 173 166 157 152 150 146 141 145 153 156 155 151 144 131 117 141 174 200 245 262 270 275 289 296 296 298 300 296 292 292 293 293 293 293 292 289 288 288 285 282 279 277 278
313 312 311 310 310 307 307 310 313 313 305 281 254 237 219 202 192 189 190 189 184 178 174 171 167 165 166 169 171 170 170 171 173 174 175 178 179 178 177 176 175 176 174 170 165 161 159 157 155 158 161 162 156 142 107 17 4 0 348 319 303 311 323 320 312 311 304 301 299 295 294 296 298 298 298 298 297 295 293 293 291 289 286 283 280
307 304 302 302 301 300 300 301 304 310 311 296 267 242 225 209 198 195 195 190 183 176 172 170 167 165 167 170 173 174 173 172 175 178 180 180 179 176 174 171 170 170 170 169 167 165 164 162 161 162 164 165 165 124 61 33 28 41 0 328 326 335 342 333 322 315 307 302 300 299 299 299 300 301 301 300 299 298 298 297 294 291 288 286 283
300 298 296 295 294 294 294 293 295 301 303 297 283 258 232 214 203 197 195 191 186 179 174 172 171 170 171 173 174 175 175 175 175 176 177 175 172 170 168 164 163 164 164 165 165 164 164 163 162 163 166 158 142 123 110 102 86 54 341 335 345 349 341 330 322 316 309 304 303 303 303 303 303 302 301 300 299 300 301 298 294 291 290 289 287
293 289 288 287 286 288 288 287 286 289 290 288 284 274 248 221 209 203 196 191 188 183 178 177 175 172 171 172 173 173 174 175 174 172 170 168 165 163 160 157 157 159 159 159 159 157 156 157 157 156 154 146 139 132 121 109 79 355 334 336 345 348 337 328 322 315 311 308 307 306 307 308 307 304 302 300 299 300 300 298 296 295 295 295 293
283 281 281 280 280 280 281 281 281 282 283 282 279 270 258 246 235 219 204 196 193 187 182 178 177 175 172 172 172 172 172 174 174 171 169 167 163 160 158 156 155 156 155 154 154 152 151 150 151 151 148 142 135 125 111 96 55 6 352 346 345 340 331 328 323 315 310 308 308 309 310 307 304 302 301 300 298 299 299 297 295 296 296 296 294
276 275 275 274 272 270 270 272 276 277 275 273 273 272 266 258 252 241 222 208 202 198 191 183 179 175 171 169 169 168 172 178 179 177 176 174 168 163 162 160 160 161 160 157 154 153 149 147 147 146 143 137 127 114 107 102 65 22 15 9 353 341 336 336 330 318 309 306 306 309 310 306 301 300 300 299 298 299 300 297 293 292 294 294 291
275 272 270 268 265 263 262 263 264 266 267 267 267 268 268 261 249 244 243 230 213 213 210 197 183 174 170 171 171 172 187 205 204 196 189 185 178 172 168 166 164 164 163 159 154 151 149 148 148 147 145 144 139 132 126 111 83 48 27 19 5 348 339 334 324 314 310 307 304 308 309 305 301 300 299 298 299 300 299 296 292 291 292 290 288
277 272 266 261 258 258 259 258 256 255 257 262 262 257 260 265 256 245 242 236 224 224 221 205 187 178 182 199 218 226 232 231 217 202 190 182 176 172 168 167 164 160 157 156 155 154 152 151 151 153 156 156 151 143 129 94 83 66 28 10 356 342 335 326 317 314 313 308 305 308 307 301 299 301 300 298 299 300 298 294 291 290 291 289 288
274 272 267 261 258 258 259 258 257 254 249 250 255 251 248 255 257 247 238 229 220 222 223 218 219 227 232 240 243 235 230 223 209 195 183 173 168 165 163 161 159 156 155 155 156 156 155 154 156 159 160 155 142 127 108 84 71 46 15 356 342 335 329 322 318 317 313 306 305 309 307 302 300 301 300 298 297 298 298 296 293 291 290 289 289
266 267 266 265 263 262 259 255 255 255 248 243 246 244 234 228 237 247 243 230 220 220 221 221 228 239 246 251 247 233 221 211 199 188 177 170 168 166 162 159 157 156 159 159 156 155 156 158 158 158 155 147 134 122 110 95 69 32 1 342 334 329 324 322 327 330 323 311 308 310 307 304 303 301 299 297 296 296 297 298 296 294 291 290 290
259 259 260 261 262 261 258 253 248 249 246 240 237 233 221 206 203 210 220 226 225 224 224 224 227 229 233 242 243 230 213 196 187 183 178 172 169 164 159 157 157 157 160 160 155 153 155 157 157 156 153 149 142 134 123 101 57 15 346 334 328 325 323 326 334 335 325 313 311 311 307 306 307 305 302 300 298 296 297 298 298 297 295 294 295
256 253 251 252 256 258 256 253 247 243 241 237 231 224 214 207 203 198 195 200 212 221 227 229 229 229 230 232 228 216 201 187 182 183 178 172 168 162 156 156 158 160 161 160 155 153 154 155 156 155 152 150 145 137 123 90 28 350 336 330 325 322 323 326 330 327 319 314 317 318 315 313 312 309 305 303 301 299 299 300 300 301 299 299 298
259 252 246 244 247 251 253 253 248 242 238 234 229 220 213 207 202 198 198 199 198 205 221 225 225 229 230 222 208 200 194 185 180 179 175 170 166 162 156 154 156 160 162 161 157 156 155 156 157 155 151 149 143 130 110 62 0 339 331 326 323 323 325 325 322 321 320 320 323 324 322 320 318 313 308 305 302 302 303 304 304 303 301 299 298
263 255 246 240 238 240 244 247 244 239 234 231 227 221 216 211 204 198 197 195 191 195 206 209 208 213 213 202 191 188 186 180 176 175 173 171 167 162 156 152 152 156 158 157 155 153 152 154 156 152 149 145 137 122 99 23 342 328 326 325 322 322 321 320 322 326 327 326 326 326 323 321 319 315 310 306 305 306 307 307 306 303 300 299 299
264 254 245 236 230 230 234 238 237 233 230 230 230 224 218 215 210 202 197 191 187 187 190 190 189 186 181 178 180 180 176 173 173 172 171 169 167 163 158 155 153 153 154 154 153 151 150 152 153 149 145 140 129 118 84 351 328 318 323 327 325 323 326 333 343 347 343 334 327 325 322 320 317 314 311 308 309 310 311 311 308 303 301 302 303
265 253 243 234 228 224 226 230 232 230 227 226 227 224 218 214 209 206 204 199 192 186 182 182 181 174 168 171 175 173 166 164 164 164 164 165 165 163 161 158 155 152 152 152 152 150 147 149 150 146 142 136 122 108 29 336 324 319 326 329 326 328 335 342 348 351 347 335 326 326 325 323 320 318 315 313 311 312 312 311 310 307 306 307 307
275 256 244 236 228 221 219 220 223 224 221 219 219 217 213 210 206 204 207 204 196 188 182 181 183 181 172 167 165 162 159 158 159 159 160 162 164 164 161 157 153 150 150 150 148 146 145 148 149 146 141 135 120 79 353 333 325 327 332 333 327 327 334 338 342 346 343 332 328 330 329 327 323 320 318 316 315 314 313 310 310 311 310 309 307
294 262 245 235 225 219 218 218 216 216 214 214 215 213 210 209 205 201 200 199 196 192 188 184 184 183 174 165 162 162 159 156 157 158 159 161 163 161 158 155 152 152 151 148 145 145 145 148 151 148 142 137 124 25 346 338 333 332 335 336 331 330 336 342 347 347 339 328 329 332 332 329 326 322 320 320 320 319 315 312 311 311 309 307 306
329 273 240 230 220 215 215 215 214 213 211 211 213 212 209 209 207 202 196 193 189 187 185 183 183 183 178 170 166 164 160 155 156 157 157 159 160 158 154 152 153 152 150 147 145 147 148 152 154 150 145 141 105 2 344 341 341 339 338 340 341 340 342 347 349 346 335 326 330 333 333 332 329 324 322 324 326 324 320 314 313 312 308 308 308
13 16 224 220 213 208 210 213 215 216 214 210 211 211 207 204 202 195 185 181 178 169 160 159 172 181 179 172 166 163 159 156 156 157 157 158 157 152 148 147 148 148 148 148 148 150 153 156 156 151 147 149 46 0 344 341 345 345 344 348 349 347 348 349 347 343 335 329 333 338 339 338 334 325 319 324 329 328 322 317 317 315 312 311 313
30 44 78 190 198 200 206 210 210 209 208 203 202 203 197 191 188 181 174 175 176 170 161 153 153 167 171 168 163 160 157 156 158 158 156 154 151 146 143 142 144 146 148 149 150 154 156 157 156 156 160 169 3 357 343 343 351 354 354 354 351 348 349 351 346 342 339 338 340 343 343 341 336 327 321 326 331 329 323 319 320 319 317 316 316
36 46 63 96 138 170 192 197 193 196 197 188 180 180 179 175 170 165 164 167 165 162 164 162 156 157 164 162 158 155 155 156 157 155 151 148 146 144 142 142 143 145 145 147 151 157 158 157 159 166 174 186 354 354 347 350 358 1 359 355 349 346 348 350 345 343 343 343 344 345 343 340 336 329 324 328 331 329 325 323 321 321 321 320 318
42 48 59 73 89 102 121 144 158 165 163 155 153 157 159 158 154 151 152 151 146 145 152 154 152 156 166 160 153 154 156 155 153 151 148 147 147 145 143 143 143 143 143 145 150 155 157 159 166 175 182 203 347 355 357 358 2 3 1 356 350 348 349 348 346 345 346 346 347 346 344 340 337 332 330 330 329 327 326 325 323 323 322 321 320
50 52 56 62 70 75 83 98 113 121 128 134 137 135 131 129 133 139 143 144 145 147 148 146 146 154 165 155 150 152 153 150 149 148 148 147 146 145 146 146 145 144 146 152 156 156 157 161 169 181 193 221 334 353 2 5 3 1 358 356 354 352 351 350 348 347 348 350 350 349 346 343 338 333 332 332 331 327 326 325 325 325 323 321 320
55 57 59 62 68 71 76 84 91 96 105 113 115 116 117 118 123 130 135 138 140 141 138 137 142 150 154 146 143 144 145 145 146 149 149 148 149 149 149 149 148 149 157 168 172 173 174 171 176 192 207 234 327 346 357 4 3 357 354 355 356 354 352 351 350 349 350 353 353 352 351 348 343 336 333 334 334 332 330 328 327 326 325 324 323
56 61 62 65 70 74 77 83 88 90 92 97 99 104 110 114 116 121 124 127 131 134 133 133 138 145 145 140 138 141 144 146 148 151 150 150 151 151 150 151 154 161 171 180 184 189 195 194 194 208 221 243 318 336 345 356 358 353 349 353 356 354 353 353 353 351 353 356 357 357 356 354 347 339 334 334 336 336 334 332 331 330 329 330 330
58 62 65 68 72 75 77 81 86 88 91 95 96 98 103 107 109 113 117 122 128 134 136 136 136 137 138 139 141 144 147 148 150 150 150 150 150 151 152 157 166 173 180 186 189 196 207 211 212 222 231 245 302 325 335 347 351 348 345 348 352 354 356 357 355 354 356 360 0 0 360 356 350 343 336 336 338 339 337 336 335 335 335 336 337
68 66 65 67 72 76 78 82 86 90 94 98 98 98 99 103 106 112 117 122 126 130 133 134 135 135 137 141 143 145 146 147 148 148 148 149 150 151 155 163 171 178 183 188 192 203 216 218 221 231 242 255 289 313 327 338 343 343 341 342 349 356 359 359 359 360 1 1 1 3 3 3 2 359 352 345 343 344 344 342 340 340 342 343 342
74 72 68 65 67 75 80 83 86 91 96 98 99 101 105 107 110 115 120 123 126 128 130 132 134 136 138 141 144 145 145 145 145 145 146 147 147 147 150 156 166 176 184 188 194 205 215 220 229 243 252 260 280 304 321 333 339 340 338 337 347 357 1 0 2 5 5 2 2 3 5 5 7 8 5 358 351 347 347 348 347 346 348 349 348